Location: Unspecified
(0.0000°N, 0.0000°E)
Time: 18:34:15
(UTC+00:00)

Courier 1B - All Passes

Search period start: 01 September 2014 00:00
Search period end: 11 September 2014 00:00
Orbit: 963 x 1209 km, 28.3° (Epoch: 31 August)

Date Brightness Start Highest point End Pass type
(mag) Time Alt. Az. Time Alt. Az. Time Alt. Az.
01 Sep - 00:11:11 10° S 00:14:59 14° SSE 00:18:50 10° SE night (unlit)
01 Sep - 02:02:45 10° SW 02:09:59 44° SSE 02:17:22 10° E visible
01 Sep - 03:56:46 10° WSW 04:04:28 61° NNW 04:12:10 10° NE visible
01 Sep - 05:53:53 10° WNW 05:59:17 20° NNW 06:04:37 10° NNE daylight
01 Sep - 11:48:10 10° NNE 11:48:32 10° NNE 11:48:54 10° NNE daylight
01 Sep - 13:37:37 10° NW 13:43:31 33° NNE 13:49:15 10° E daylight
01 Sep - 15:31:07 10° WNW 15:37:35 67° SSW 15:44:01 10° SE daylight
01 Sep - 17:27:35 10° WSW 17:31:54 18° SSW 17:36:17 10° SSE daylight
01 Sep - 23:19:45 10° SSE 23:20:44 10° SSE 23:21:43 10° SSE night (unlit)
02 Sep - 01:09:22 10° SSW 01:15:58 33° SSE 01:22:47 10° E night (unlit)
02 Sep - 03:02:43 10° WSW 03:10:29 81° NNW 03:18:22 10° ENE visible
02 Sep - 04:58:48 10° W 05:05:09 27° NNW 05:11:28 10° NNE visible
02 Sep - 12:44:19 10° NNW 12:49:40 24° NNE 12:54:50 10° ENE daylight
02 Sep - 14:37:17 10° WNW 14:43:55 87° NNE 14:50:23 10° ESE daylight
02 Sep - 16:32:50 10° W 16:38:02 25° SSW 16:43:16 10° SSE daylight
03 Sep - 00:16:11 10° SSW 00:21:56 24° SSE 00:27:53 10° ESE night (unlit)
03 Sep - 02:08:54 10° SW 02:16:32 76° SSE 02:24:23 10° ENE visible
03 Sep - 04:04:05 10° W 04:11:05 36° NNW 04:18:05 10° NE visible
03 Sep - 06:03:37 10° NW 06:06:24 12° NNW 06:09:10 10° N daylight
03 Sep - 11:51:09 10° NNW 11:55:43 18° NNE 12:00:07 10° ENE daylight
03 Sep - 13:43:33 10° NW 13:50:13 62° NNE 13:56:37 10° ESE daylight
03 Sep - 15:38:22 10° W 15:44:15 35° SSW 15:50:05 10° SE daylight
03 Sep - 23:23:18 10° SSW 23:27:52 17° SSE 23:32:35 10° ESE night (unlit)
04 Sep - 01:15:16 10° SW 01:22:35 56° SSE 01:30:11 10° ENE visible
04 Sep - 03:09:41 10° WSW 03:17:02 48° NNW 03:24:32 10° NE visible
04 Sep - 05:07:35 10° WNW 05:12:06 16° NNW 05:16:37 10° NNE visible
04 Sep - 10:58:13 10° N 11:01:38 14° NNE 11:04:58 10° NE daylight
04 Sep - 12:49:57 10° NW 12:56:27 44° NNE 13:02:40 10° E daylight
04 Sep - 14:44:07 10° WNW 14:50:31 50° SSW 14:56:46 10° SE daylight
04 Sep - 16:41:46 10° SW 16:44:59 14° SSW 16:48:12 10° S daylight
04 Sep - 22:30:56 10° S 22:33:44 12° SSE 22:36:36 10° SE night (unlit)
05 Sep - 00:21:51 10° SW 00:28:38 40° SSE 00:35:46 10° E night (unlit)
05 Sep - 02:15:33 10° WSW 02:23:03 64° NNW 02:30:49 10° NE visible
05 Sep - 04:12:15 10° WNW 04:17:53 21° NNW 04:23:33 10° NNE visible
05 Sep - 10:06:00 10° N 10:07:26 11° NNE 10:08:51 10° NNE daylight
05 Sep - 11:56:26 10° NW 12:02:37 32° NNE 12:08:30 10° E daylight
05 Sep - 13:50:03 10° WNW 13:56:49 72° SSW 14:03:19 10° SE daylight
05 Sep - 15:46:30 10° WSW 15:51:03 20° SSW 15:55:34 10° SSE daylight
05 Sep - 23:28:37 10° SSW 23:34:42 29° SSE 23:41:04 10° E night (unlit)
06 Sep - 01:21:39 10° WSW 01:29:06 86° NNW 01:36:55 10° ENE visible
06 Sep - 03:17:22 10° W 03:23:45 28° NNW 03:30:15 10° NNE visible
06 Sep - 11:03:02 10° NNW 11:08:41 24° NNE 11:14:04 10° ENE daylight
06 Sep - 12:56:07 10° WNW 13:03:06 82° NNE 13:09:42 10° ESE daylight
06 Sep - 14:51:42 10° W 14:57:13 27° SSW 15:02:36 10° SSE daylight
06 Sep - 22:35:37 10° SSW 22:40:44 21° SSE 22:46:04 10° ESE night (unlit)
07 Sep - 00:27:58 10° SW 00:35:12 71° SSE 00:42:51 10° ENE night (unlit)
07 Sep - 02:22:50 10° W 02:29:40 37° NNW 02:36:45 10° NE visible
07 Sep - 04:21:44 10° NW 04:25:00 13° NNW 04:28:16 10° N visible
07 Sep - 10:09:46 10° NNW 10:14:38 19° NNE 10:19:20 10° ENE daylight
07 Sep - 12:02:19 10° NW 12:09:20 59° NNE 12:15:55 10° ESE daylight
07 Sep - 13:57:10 10° W 14:03:26 38° SSW 14:09:28 10° SE daylight
07 Sep - 15:56:41 10° SW 15:58:06 11° SSW 15:59:31 10° S daylight
07 Sep - 21:42:57 10° S 21:46:43 15° SSE 21:50:36 10° ESE night (unlit)
07 Sep - 23:34:29 10° SW 23:41:20 51° SSE 23:48:35 10° ENE night (unlit)
08 Sep - 01:28:36 10° WSW 01:35:40 50° NNW 01:43:07 10° NE visible
08 Sep - 03:26:03 10° WNW 03:30:42 17° NNW 03:35:26 10° NNE visible
08 Sep - 09:16:42 10° N 09:20:28 14° NNE 09:24:09 10° NE daylight
08 Sep - 11:08:38 10° NW 11:15:29 43° NNE 11:21:57 10° E daylight
08 Sep - 13:02:51 10° WNW 13:09:41 55° SSW 13:16:09 10° SE daylight
08 Sep - 15:00:23 10° WSW 15:04:05 15° SSW 15:07:44 10° S daylight
08 Sep - 20:51:23 10° S 20:52:39 11° SSE 20:53:54 10° SSE visible
08 Sep - 22:41:11 10° SW 22:47:28 37° SSE 22:54:06 10° E night (unlit)
09 Sep - 00:34:36 10° WSW 00:41:45 67° NNW 00:49:19 10° NE night (unlit)
09 Sep - 02:30:57 10° WNW 02:36:30 22° NNW 02:42:14 10° NNE visible
09 Sep - 08:24:12 10° N 08:26:11 11° NNE 08:28:10 10° NNE daylight
09 Sep - 10:15:03 10° NW 10:21:34 32° NNE 10:27:43 10° E daylight
09 Sep - 12:08:43 10° WNW 12:15:55 77° SSW 12:22:41 10° SE daylight
09 Sep - 14:05:08 10° WSW 14:10:10 22° SSW 14:15:04 10° SSE daylight
09 Sep - 21:48:04 10° SSW 21:53:36 26° SSE 21:59:23 10° E night (unlit)
09 Sep - 23:40:50 10° WSW 23:47:52 89° SSE 23:55:23 10° ENE night (unlit)
10 Sep - 01:36:14 10° W 01:42:24 29° NNW 01:48:50 10° NNE visible
10 Sep - 03:37:28 10° NNW 03:37:59 10° NNW 03:38:30 10° NNW visible
10 Sep - 09:21:36 10° NNW 09:27:32 24° NNE 09:33:13 10° ENE daylight
10 Sep - 11:14:44 10° NW 11:22:07 78° NNE 11:29:02 10° ESE daylight
10 Sep - 13:10:17 10° W 13:16:19 30° SSW 13:22:05 10° SSE daylight
10 Sep - 20:55:12 10° SSW 20:59:42 19° SSE 21:04:19 10° ESE visible
10 Sep - 22:47:15 10° SW 22:54:03 66° SSE 23:01:18 10° ENE night (unlit)
